[[{"header":{"parameterUnit":"m.s-1","parameterCategory":1,"la1":30.2991,"la2":30.254,"lo1":-89.0895,"lo2":-89.0444,"dy":0.0017,"dx":0.0017,"nx":28,"ny":28,"refTime":"2025-02-04T09:00:00:Z","depth":0,"parameterNumber":2,"parameterNumberName":"U-component_of_WINDS"},"data":[0,0,0,0,0,0,0,0,0,0,0,0,0,0,0,0,0,0,0,0,0,0,0,0,0,0,0,0,0,0,0,0,0,0,0,0,0,0,0,0,0,0,0,0,0,0,0,0,0,0,0,0,0,0,0,0,0,0,0.064,0.0641,0,0.0694,0.0694,0.0695,0.072,0.072,0.072,0.072,0.0775,0.0777,0.0778,0,0,0,0,0,0,0,0,0,0,0,0,0,0.056,0.0561,0.064,0.0641,0.0641,0.0693,0.0694,0.0695,0.072,0.072,0.072,0.072,0.0775,0.0776,0.0778,0,0,0,0,0,0,0,0,0,0,0,0,0,0.0602,0.0562,0.064,0.066,0.0663,0.0693,0.0694,0.0695,0.072,0.072,0.072,0.072,0.0774,0.0776,0.0778,0.0793,0,0,0.0785,0.0786,0,0,0,0,0,0,0,0,0.06,0.0605,0.0657,0.0659,0.0662,0.07,0.0686,0.0728,0.072,0.0698,0.072,0.072,0.075,0.0754,0.0765,0.0796,0.0798,0.0785,0.0787,0.0788,0.0788,0,0,0,0,0,0,0,0.0597,0.0603,0.0661,0.0657,0.066,0.0667,0.0673,0.0694,0.0724,0.07,0.0702,0.0708,0.0752,0.0762,0.0766,0.0799,0.0785,0.0787,0.0789,0.079,0.0844,0.0844,0,0,0,0,0,0,0.0591,0.06,0.066,0.0663,0.063,0.0668,0.0675,0.0688,0.0724,0.0729,0.0708,0.0709,0.0759,0.0763,0.0768,0.0787,0.0788,0.079,0.0791,0.0844,0.0844,0.0844,0,0,0,0,0,0,0.0589,0.0596,0.0657,0.0632,0.0641,0.067,0.0684,0.0689,0.07,0.073,0.0735,0.0714,0.0759,0.0765,0.0786,0.0789,0.0791,0.0793,0.0843,0.0844,0.0844,0.0825,0,0,0,0,0,0,0.0586,0.0595,0.0601,0.0632,0.0642,0.0675,0.0684,0.069,0.0703,0.0705,0.0736,0.0741,0.0759,0.0783,0.0789,0.0792,0.0795,0.0843,0.0843,0.0844,0.0826,0.0825,0.0824,0,0,0,0,0,0.0583,0.0594,0.0601,0.0608,0.065,0.0675,0.0681,0.0701,0.0704,0.071,0.0729,0.074,0.0788,0.0785,0.0792,0.0796,0.0843,0.0843,0.0844,0.0826,0.0825,0.0824,0,0,0,0,0,0,0.0562,0.0598,0.0607,0.0627,0.0648,0.0679,0.0688,0.0699,0.0719,0.072,0.0744,0.0751,0.077,0.0785,0.0781,0.0812,0.0817,0.0818,0.0801,0.08,0.0799,0.0795,0.0796,0,0,0,0,0,0.056,0.0577,0.0608,0.0623,0.0633,0.0658,0.067,0.0684,0.0706,0.0715,0.0736,0.0757,0.0777,0.0789,0.0809,0.0828,0.0835,0.0834,0.0833,0.0833,0.0834,0.0844,0.0844,0.0844,0.0844,0.0844,0,0,0.0555,0.0577,0.0587,0.062,0.0637,0.0655,0.0666,0.0684,0.0697,0.0718,0.0739,0.0755,0.0781,0.0801,0.081,0.0814,0.0835,0.0833,0.0832,0.0834,0.0844,0.0844,0.0844,0.0845,0.0845,0.0845,0,0,0.0556,0.0575,0.0589,0.0606,0.0633,0.0649,0.0653,0.0682,0.0693,0.0715,0.0731,0.0747,0.0781,0.0798,0.0811,0.0817,0.0829,0.0823,0.0818,0.0828,0.0828,0.0828,0.083,0.0831,0.0824,0.0824,0.0824,0,0.0548,0.0575,0.0595,0.0613,0.0626,0.0645,0.066,0.0676,0.0707,0.0716,0.0719,0.0761,0.078,0.0804,0.0805,0.0815,0.082,0.082,0.0827,0.0827,0.0827,0.0829,0.083,0.0823,0.0823,0.0823,0.0823,0,0.0562,0.0581,0.0589,0.0619,0.0633,0.0649,0.0672,0.0685,0.0697,0.0713,0.0734,0.0757,0.0781,0.0788,0.08,0.0814,0.0815,0.0822,0.0828,0.0826,0.0828,0.083,0.0822,0.0822,0.0822,0.0823,0,0,0.0552,0.0592,0.0595,0.0608,0.0638,0.0653,0.0669,0.0693,0.0703,0.0724,0.0738,0.0765,0.0772,0.0787,0.0801,0.0809,0.0812,0.0815,0.0816,0.0814,0.0828,0.0823,0.0823,0.082,0.082,0.082,0.0826,0,0.0557,0.0588,0.0606,0.0629,0.0646,0.0664,0.0678,0.0698,0.0713,0.073,0.0747,0.0766,0.0773,0.0782,0.0792,0.081,0.0816,0.081,0.0833,0.0834,0.0827,0.0825,0.0819,0.0823,0.0827,0.0827,0.0827,0,0.0567,0.0587,0.0611,0.0639,0.0647,0.0659,0.0682,0.0698,0.072,0.0731,0.0747,0.0761,0.0778,0.0782,0.0807,0.0802,0.0813,0.0823,0.0824,0.0827,0.0831,0.0828,0.0825,0.0826,0.0829,0.0829,0.0829,0,0.0557,0.059,0.0609,0.0619,0.0652,0.066,0.0674,0.0697,0.0709,0.0729,0.0738,0.0759,0.0771,0.0787,0.0807,0.0808,0.0829,0.0835,0.0838,0.0838,0.0843,0.0842,0.0842,0.0849,0.0849,0.0849,0.0849,0,0.0561,0.0575,0.0604,0.0616,0.0632,0.0653,0.0669,0.0684,0.0704,0.0718,0.0735,0.0748,0.0773,0.0789,0.0805,0.0822,0.0828,0.0837,0.0841,0.0835,0.0834,0.0843,0.0843,0.0849,0.0849,0.0849,0.0849,0,0.0552,0.0573,0.0594,0.0623,0.063,0.0641,0.0666,0.0677,0.0693,0.0711,0.0717,0.0742,0.0762,0.0782,0.081,0.082,0.0837,0.0842,0.0829,0.0831,0.0834,0.0833,0.0839,0.0841,0.0847,0.0847,0.0847,0,0.0553,0.0565,0.0594,0.0605,0.0619,0.0636,0.0649,0.067,0.0683,0.0709,0.0717,0.0738,0.0756,0.0787,0.0808,0.0828,0.0834,0.0835,0.0838,0.0832,0.0834,0.0833,0.0834,0.0834,0.0834,0.0834,0.0834,0,0.0553,0.0562,0.0581,0.0602,0.0617,0.0634,0.0653,0.0661,0.0685,0.0699,0.0719,0.0733,0.076,0.0781,0.0804,0.0818,0.083,0.0832,0.0834,0.0829,0.0821,0.0825,0.0827,0.0832,0.0833,0.0833,0.0833,0.0833,0.055,0.056,0.0583,0.0602,0.0618,0.0634,0.0647,0.0664,0.0681,0.0705,0.0716,0.0736,0.0758,0.079,0.0803,0.0819,0.0823,0.0826,0.0827,0.0827,0.0825,0.0818,0.0824,0.0824,0.0824,0.0824,0.0824,0,0.055,0.0565,0.0583,0.0608,0.0623,0.0632,0.0653,0.0665,0.0682,0.0701,0.0718,0.0741,0.0761,0.0783,0.0804,0.0812,0.0818,0.0817,0.0817,0.082,0.0821,0.0817,0.0812,0.0812,0.0812,0.0812,0.0812,0.0812,0.0552,0.057,0.0582,0.0608,0.0623,0.0643,0.0654,0.0669,0.0684,0.0709,0.0726,0.074,0.076,0.0782,0.08,0.0806,0.0813,0.0811,0.0818,0.0819,0.082,0.0821,0.0817,0.0812,0.0812,0.0815,0.0815,0.0815]},{"header":{"parameterUnit":"m.s-1","parameterCategory":1,"la1":30.2991,"la2":30.254,"lo1":-89.0895,"lo2":-89.0444,"dy":0.0017,"dx":0.0017,"nx":28,"ny":28,"refTime":"2025-02-04T09:00:00:Z","depth":0,"parameterNumber":3,"parameterNumberName":"V-component_of_WINDS"},"data":[0,0,0,0,0,0,0,0,0,0,0,0,0,0,0,0,0,0,0,0,0,0,0,0,0,0,0,0,0,0,0,0,0,0,0,0,0,0,0,0,0,0,0,0,0,0,0,0,0,0,0,0,0,0,0,0,0,0,1.0996,1.0996,0,1.0984,1.0984,1.0984,1.0975,1.0975,1.0975,1.0975,1.0961,1.0961,1.0961,0,0,0,0,0,0,0,0,0,0,0,0,0,1.101,1.101,1.0996,1.0996,1.0996,1.0984,1.0984,1.0984,1.0975,1.0975,1.0975,1.0975,1.0961,1.0961,1.0961,0,0,0,0,0,0,0,0,0,0,0,0,0,1.1001,1.1009,1.0996,1.099,1.0989,1.0984,1.0984,1.0984,1.0975,1.0975,1.0975,1.0975,1.0961,1.0961,1.096,1.096,0,0,1.0959,1.0959,0,0,0,0,0,0,0,0,1.1002,1.1001,1.0991,1.099,1.099,1.0981,1.0984,1.0976,1.0975,1.098,1.0975,1.0975,1.0968,1.0967,1.0965,1.096,1.0959,1.0959,1.0959,1.0959,1.0959,0,0,0,0,0,0,0,1.1002,1.1001,1.0991,1.0991,1.099,1.0987,1.0986,1.0982,1.0975,1.098,1.0979,1.0978,1.0967,1.0965,1.0964,1.0959,1.0959,1.0959,1.0959,1.0958,1.0953,1.0953,0,0,0,0,0,0,1.1004,1.1002,1.0992,1.0991,1.0996,1.0987,1.0986,1.0984,1.0975,1.0973,1.0978,1.0978,1.0966,1.0965,1.0964,1.0963,1.0959,1.0958,1.0958,1.0953,1.0953,1.0953,0,0,0,0,0,0,1.1005,1.1003,1.0992,1.0996,1.0995,1.0987,1.0985,1.0984,1.0982,1.0973,1.0972,1.0977,1.0966,1.0964,1.0961,1.0963,1.0958,1.0958,1.0953,1.0953,1.0953,1.0962,0,0,0,0,0,0,1.1005,1.1004,1.1004,1.0996,1.0994,1.099,1.0985,1.0983,1.0981,1.098,1.0972,1.0971,1.0966,1.0962,1.0961,1.0962,1.0957,1.0952,1.0953,1.0953,1.0961,1.0962,1.0963,0,0,0,0,0,1.1005,1.1006,1.1004,1.1003,1.0995,1.099,1.0989,1.0983,1.0981,1.0981,1.0976,1.0971,1.0962,1.0962,1.096,1.0961,1.0952,1.0953,1.0953,1.0961,1.0962,1.0963,0,0,0,0,0,0,1.1014,1.1005,1.1002,1.1001,1.0996,1.0989,1.0989,1.0985,1.098,1.098,1.0972,1.0971,1.0968,1.0964,1.0964,1.0961,1.0957,1.0957,1.0963,1.0964,1.0965,1.0966,1.0957,0,0,0,0,0,1.1015,1.1013,1.1006,1.1005,1.1003,1.0996,1.0994,1.099,1.0985,1.0983,1.0978,1.0972,1.0968,1.0966,1.0962,1.096,1.0959,1.096,1.0961,1.0962,1.0962,1.0961,1.0962,1.0954,1.0954,1.0954,0,0,1.1019,1.1014,1.1013,1.1007,1.1003,1.1,1.0995,1.0992,1.099,1.0982,1.0979,1.0975,1.0969,1.0967,1.0965,1.0963,1.0964,1.0962,1.0963,1.0963,1.0961,1.0962,1.0963,1.0954,1.0954,1.0954,0,0,1.1024,1.102,1.1019,1.1015,1.1009,1.1005,1.1005,1.0998,1.0995,1.0992,1.0986,1.0983,1.0976,1.0972,1.0969,1.0973,1.0968,1.0971,1.0976,1.0975,1.0975,1.0976,1.0977,1.0978,1.0971,1.0971,1.0971,0,1.1028,1.1025,1.1019,1.1017,1.1014,1.1007,1.1007,1.1003,1.0996,1.0994,1.0992,1.0984,1.0979,1.0976,1.0977,1.0974,1.0974,1.0972,1.0976,1.0976,1.0977,1.0978,1.0979,1.0972,1.0972,1.0972,1.0972,0,1.1031,1.1029,1.1029,1.1023,1.102,1.1019,1.1012,1.101,1.1006,1.1002,1.0998,1.0992,1.0987,1.0986,1.0982,1.0982,1.0981,1.0977,1.0974,1.0978,1.0979,1.098,1.0973,1.0972,1.0972,1.0972,0,0,1.1041,1.1032,1.1032,1.1029,1.1023,1.102,1.1018,1.1014,1.1012,1.1007,1.1006,1.1,1.0997,1.0993,1.0989,1.0988,1.0991,1.0984,1.0984,1.0986,1.0991,1.0994,1.0995,1.0988,1.0988,1.0988,1.0992,0,1.1045,1.1042,1.1037,1.1035,1.1033,1.1026,1.1024,1.102,1.1015,1.1012,1.1007,1.1004,1.1,1.0998,1.0996,1.0991,1.0992,1.0991,1.0986,1.0986,1.0989,1.0996,1.0999,1.1003,1.0992,1.0992,1.0992,0,1.105,1.1046,1.1045,1.1038,1.1037,1.1035,1.1031,1.1028,1.1023,1.1019,1.1016,1.1011,1.1008,1.1004,1.1,1.0999,1.0997,1.0994,1.0994,1.0994,1.099,1.0996,1.1004,1.1005,1.0993,1.0993,1.0993,0,1.1058,1.1052,1.1051,1.1049,1.1041,1.104,1.1037,1.1031,1.1029,1.1024,1.1022,1.1018,1.1015,1.1011,1.1005,1.1003,1.1002,1.0997,1.0999,1.0999,1.0999,1.1,1.1007,1.0997,1.0997,1.0997,1.0997,0,1.1064,1.1063,1.1054,1.1053,1.1052,1.1046,1.1045,1.1041,1.1036,1.1034,1.1027,1.1025,1.1017,1.1013,1.1008,1.1006,1.1005,1.1002,1.1001,1.1003,1.1003,1.1002,1.1001,1.0997,1.0997,1.0997,1.0997,0,1.1073,1.1067,1.1065,1.1058,1.1056,1.1055,1.1049,1.1048,1.1043,1.104,1.1039,1.1032,1.1028,1.1021,1.1015,1.1011,1.101,1.1007,1.1012,1.1011,1.1014,1.1014,1.1021,1.1022,1.1011,1.1011,1.1011,0,1.1077,1.1076,1.1069,1.1068,1.1065,1.1062,1.1059,1.1053,1.105,1.1044,1.1043,1.1039,1.1035,1.1029,1.1023,1.1018,1.1016,1.1019,1.1015,1.1017,1.1016,1.1017,1.1017,1.102,1.102,1.102,1.102,0,1.1085,1.1082,1.1079,1.1075,1.1073,1.1069,1.1065,1.1064,1.1056,1.1054,1.105,1.1047,1.1041,1.1037,1.1031,1.1027,1.1022,1.1021,1.1021,1.1024,1.1027,1.1026,1.1015,1.1021,1.1021,1.1021,1.1021,1.1021,1.1092,1.1091,1.1086,1.1083,1.108,1.1076,1.1074,1.107,1.1066,1.1062,1.1057,1.1054,1.1048,1.104,1.1036,1.1033,1.1031,1.1031,1.1031,1.1032,1.1033,1.1027,1.1032,1.1032,1.1032,1.1032,1.1032,0,1.11,1.1097,1.1094,1.1089,1.1086,1.1082,1.1077,1.1076,1.1073,1.1068,1.1065,1.106,1.1056,1.1049,1.1044,1.1043,1.1041,1.1042,1.1043,1.1042,1.1035,1.1035,1.1044,1.1044,1.1044,1.1044,1.1044,1.1044,1.1104,1.1103,1.11,1.1096,1.1092,1.109,1.1087,1.1084,1.108,1.1076,1.1072,1.1068,1.1062,1.1057,1.1053,1.1051,1.105,1.1052,1.105,1.1043,1.1042,1.1041,1.1042,1.1052,1.1052,1.1057,1.1057,1.1057]}]]